Showing default

GJZ 03, 62292

Orbit data source: Space-Track

GJZ 03, 62292 is a payload satellite owned by CASC (CN) in LEO that was launched on Thu, 12 Dec 2024 UTC via a CHANG ZHENG 2D/YZ-3 launch vehicle from the Jiuquan Satellite Launch Center, China (JSC). Payload-class satellites include a variety of spacecraft equipped with specific instruments for various scientific and technological missions. These include communications satellites like Starlink; space stations such as the ISS; scientific satellites like the Hubble; Earth observation satellites from companies like Planet Labs, Umbra, and HawkEye 360; GPS; miniature CubeSats for education and research; and military/defense satellites.

Loading next visibility...
Identifier
62292, 2024-238C
Orbit
LEO
Country
Flag of CNCN / PRC
Related business
Manufacturer
HITSAT
Mission
Operational Civil Communications
Bus & Motor
HARBFLAT, Unknown motor
Mass
~150 kg wet, ~150 kg dry
Launch date (UTC)
2024-12-12 (2 years ago)
Launch vehicle
CHANG ZHENG 2D/YZ-3
Launch site
Jiuquan Satellite Launch Center, China (JSC)
Object type
Payload
Rocket body
Debris
Shape & HBR
Box + 2 Pan, 1.5 m
Radar Cross Section
0.240 m², Large (>1 m²)

Expand to show TLE details & history
Last TLE update: 7 hours ago

TLE from 7 hours ago
0 GJZ 03
1 62292U 24238C   26171.54312699 -.00000040  00000-0  81888-4 0  9998
2 62292  59.9136 260.8578 0018515   4.3647 355.7519 13.75207702 76356
Epoch: 2026-06-20T13:02Z
TLE epoch observation values (Epoch: 2026-06-20T13:02:06.171Z)
Latitude
-0.00004°
Longitude
156.57582°
Altitude
968.83 km
Speed
7.375 km/s
True Right ascension
17h 23m 25s
True Declination
0° 00' 00"
Sunlit
Object was in full shadow at epoch
Visualization orbit readout
Latitude
Unknown
Longitude
Unknown
Altitude
Unknown
Speed
Unknown
Apparent Right ascension
Unknown
Apparent Declination
Unknown
Sunlit
N/A
Visualization observer readout
Local Sidereal Time
07:21:02
Azimuth
Unknown
Elevation
Unknown
Doppler factor
Unknown
Orbital elements
Apogee altitude
993.826 km
Perigee altitude
966.578 km
Semi-major axis
7,358.339 km
Eccentricity
0.00185
Inclination
59.9136°
RAAN
260.8578°
Arg. of periapsis
4.3647°
True anomaly
355.73615°
Mean anomaly
355.7519°
Eccentric anomaly
355.74403°
Mean motion
3.43854 °/min
Orbital period
104.7 mins
BSTAR
0.000081888
Loading maneuver chart data...
Computing Atmospheric mass density...
Loading historical data...
Loading historical data...
Loading historical data...
Loading historical data...
Loading historical data...
Loading historical data...
Loading historical data...
Other satellites on launch #238 in the year 2024 (2024-12-12 UTC)

Documentation

Showing up to 5 results
|